When you browse on this site, cookies collect data to enhance your experience and personalize the content and advertising you see.
Visit our Privacy Policy to learn more. By continuing to use the site, you agree to this use of cookies and data.
  • In Österreich
  • Länderverzeichnis
  • Für 7 Tage
  • Wassertemperatur
  • Wetterkarte
  • News
  • Widgets
  • user-avatar
    Anmelden

    Stündliche Wetter Chaschuri

    Heute, 20 August, Dienstag

    Zeit Temperatur Niederschläge Wind Luftdruck Luftfeuchtigkeit
    00:00 +15°C° 0 mm 2 m/S 618 mmHg 48%
    01:00 +15°C° 0 mm 2 m/S 618 mmHg 47%
    02:00 +15°C° 0 mm 2 m/S 618 mmHg 45%
    03:00 +15°C° 0 mm 2 m/S 618 mmHg 44%
    04:00 +15°C° 0 mm 2 m/S 618 mmHg 47%
    05:00 +14°C° 0 mm 2 m/S 618 mmHg 50%
    06:00 +14°C° 0 mm 2 m/S 618 mmHg 53%
    07:00 +16°C° 0 mm 2 m/S 618 mmHg 49%
    08:00 +19°C° 0 mm 2 m/S 619 mmHg 45%
    09:00 +23°C° 0 mm 2 m/S 620 mmHg 41%
    10:00 +24°C° 0 mm 2 m/S 621 mmHg 37%
    11:00 +26°C° 0 mm 2 m/S 621 mmHg 33%
    12:00 +28°C° 0 mm 2 m/S 621 mmHg 29%
    13:00 +28°C° 0 mm 2 m/S 621 mmHg 29%
    14:00 +28°C° 0 mm 3 m/S 621 mmHg 30%
    15:00 +28°C° 0 mm 3 m/S 620 mmHg 30%
    16:00 +26°C° 0 mm 3 m/S 620 mmHg 37%
    17:00 +24°C° 0 mm 2 m/S 619 mmHg 44%
    18:00 +21°C° 0 mm 2 m/S 618 mmHg 51%
    19:00 +19°C° 0 mm 2 m/S 618 mmHg 50%
    20:00 +17°C° 0 mm 2 m/S 618 mmHg 48%
    21:00 +16°C° 0 mm 2 m/S 618 mmHg 47%
    22:00 +15°C° 0 mm 2 m/S 618 mmHg 46%
    23:00 +15°C° 0 mm 2 m/S 617 mmHg 44%

    Morgen, 21 August, Mittwoch

    Zeit Temperatur Niederschläge Wind Luftdruck Luftfeuchtigkeit
    00:00 +15°C° 0 mm 2 m/S 617 mmHg 42%
    01:00 +14°C° 0 mm 2 m/S 617 mmHg 40%
    02:00 +14°C° 0 mm 2 m/S 617 mmHg 39%
    03:00 +14°C° 0 mm 2 m/S 617 mmHg 37%
    04:00 +14°C° 0 mm 2 m/S 617 mmHg 39%
    05:00 +14°C° 0 mm 2 m/S 616 mmHg 42%
    06:00 +14°C° 0 mm 2 m/S 616 mmHg 44%
    07:00 +16°C° 0 mm 2 m/S 617 mmHg 42%
    08:00 +19°C° 0 mm 2 m/S 618 mmHg 39%
    09:00 +23°C° 0 mm 2 m/S 619 mmHg 37%
    10:00 +25°C° 0 mm 2 m/S 619 mmHg 34%
    11:00 +27°C° 0 mm 2 m/S 620 mmHg 31%
    12:00 +29°C° 0 mm 2 m/S 620 mmHg 29%
    13:00 +29°C° 0 mm 2 m/S 620 mmHg 29%
    14:00 +29°C° 0 mm 2 m/S 620 mmHg 29%
    15:00 +29°C° 0 mm 3 m/S 619 mmHg 30%
    16:00 +27°C° 0 mm 3 m/S 618 mmHg 37%
    17:00 +25°C° 0 mm 3 m/S 617 mmHg 44%
    18:00 +22°C° 0 mm 3 m/S 616 mmHg 51%
    19:00 +20°C° 0 mm 2 m/S 616 mmHg 49%
    20:00 +18°C° 0 mm 2 m/S 616 mmHg 47%
    21:00 +16°C° 0 mm 2 m/S 615 mmHg 45%
    22:00 +15°C° 0 mm 2 m/S 615 mmHg 42%
    23:00 +15°C° 0 mm 2 m/S 615 mmHg 39%

    übermorgen, 22 August, Donnerstag

    Zeit Temperatur Niederschläge Wind Luftdruck Luftfeuchtigkeit
    00:00 +14°C° 0 mm 2 m/S 615 mmHg 36%
    01:00 +14°C° 0 mm 2 m/S 615 mmHg 36%
    02:00 +14°C° 0 mm 2 m/S 614 mmHg 36%
    03:00 +13°C° 0 mm 2 m/S 614 mmHg 36%
    04:00 +13°C° 0 mm 2 m/S 614 mmHg 38%
    05:00 +13°C° 0 mm 2 m/S 614 mmHg 41%
    06:00 +13°C° 0 mm 2 m/S 614 mmHg 43%
    07:00 +16°C° 0 mm 2 m/S 615 mmHg 40%
    08:00 +20°C° 0 mm 1 m/S 616 mmHg 38%
    09:00 +23°C° 0 mm 1 m/S 617 mmHg 35%
    10:00 +24°C° 0 mm 2 m/S 617 mmHg 34%
    11:00 +25°C° 0 mm 2 m/S 617 mmHg 32%
    12:00 +27°C° 0 mm 2 m/S 618 mmHg 31%
    13:00 +26°C° 0 mm 3 m/S 617 mmHg 32%
    14:00 +26°C° 0 mm 3 m/S 617 mmHg 33%
    15:00 +26°C° 0 mm 4 m/S 617 mmHg 34%
    16:00 +24°C° 0 mm 3 m/S 616 mmHg 44%
    17:00 +21°C° 0 mm 3 m/S 616 mmHg 53%
    18:00 +20°C° 0 mm 2 m/S 615 mmHg 62%
    19:00 +18°C° 0 mm 2 m/S 615 mmHg 66%
    20:00 +16°C° 0 mm 2 m/S 615 mmHg 70%
    21:00 +14°C° 0 mm 1 m/S 615 mmHg 74%
    22:00 +14°C° 0 mm 1 m/S 615 mmHg 73%
    23:00 +13°C° 0 mm 1 m/S 615 mmHg 73%

    23 August, Freitag

    Zeit Temperatur Niederschläge Wind Luftdruck Luftfeuchtigkeit
    00:00 +13°C° 0 mm 1 m/S 614 mmHg 73%
    01:00 +13°C° 0 mm 1 m/S 614 mmHg 71%
    02:00 +12°C° 0 mm 1 m/S 614 mmHg 70%
    03:00 +12°C° 0 mm 1 m/S 614 mmHg 69%
    04:00 +12°C° 0 mm 1 m/S 614 mmHg 69%
    05:00 +12°C° 0 mm 1 m/S 614 mmHg 70%
    06:00 +11°C° 0 mm 1 m/S 614 mmHg 70%
    07:00 +14°C° 0 mm 1 m/S 615 mmHg 62%
    08:00 +18°C° 0 mm 1 m/S 616 mmHg 55%
    09:00 +20°C° 0 mm 1 m/S 617 mmHg 47%
    10:00 +22°C° 0 mm 1 m/S 617 mmHg 44%
    11:00 +23°C° 0 mm 2 m/S 618 mmHg 41%
    12:00 +24°C° 0 mm 2 m/S 618 mmHg 37%
    13:00 +25°C° 0 mm 3 m/S 618 mmHg 37%
    14:00 +25°C° 0 mm 3 m/S 618 mmHg 37%
    15:00 +25°C° 0 mm 3 m/S 618 mmHg 37%
    16:00 +24°C° 0 mm 3 m/S 617 mmHg 46%
    17:00 +21°C° 0 mm 3 m/S 617 mmHg 54%
    18:00 +20°C° 0 mm 2 m/S 616 mmHg 63%
    19:00 +18°C° 0.1 mm 2 m/S 616 mmHg 69%
    20:00 +17°C° 0.1 mm 2 m/S 616 mmHg 74%
    21:00 +15°C° 0.1 mm 1 m/S 616 mmHg 80%
    22:00 +15°C° 0 mm 1 m/S 616 mmHg 82%
    23:00 +14°C° 0 mm 1 m/S 616 mmHg 85%

    24 August, Samstag

    Zeit Temperatur Niederschläge Wind Luftdruck Luftfeuchtigkeit
    00:00 +14°C° 0 mm 1 m/S 616 mmHg 87%
    01:00 +12°C° 0 mm 0 m/S 615 mmHg 88%
    02:00 +12°C° 0 mm 0 m/S 615 mmHg 88%
    03:00 +12°C° 0 mm 0 m/S 615 mmHg 89%
    04:00 +12°C° 0 mm 0 m/S 615 mmHg 87%
    05:00 +13°C° 0 mm 1 m/S 615 mmHg 86%
    06:00 +13°C° 0 mm 1 m/S 615 mmHg 84%
    07:00 +15°C° 0 mm 1 m/S 616 mmHg 75%
    08:00 +18°C° 0 mm 1 m/S 617 mmHg 66%
    09:00 +20°C° 0 mm 1 m/S 618 mmHg 57%
    10:00 +22°C° 0.1 mm 1 m/S 618 mmHg 53%
    11:00 +23°C° 0.1 mm 2 m/S 618 mmHg 49%
    12:00 +24°C° 0.1 mm 2 m/S 619 mmHg 45%
    13:00 +24°C° 0.5 mm 2 m/S 619 mmHg 46%
    14:00 +24°C° 0.5 mm 3 m/S 619 mmHg 48%
    15:00 +24°C° 0.5 mm 3 m/S 618 mmHg 50%
    16:00 +21°C° 0.6 mm 3 m/S 618 mmHg 58%
    17:00 +20°C° 0.6 mm 2 m/S 618 mmHg 67%
    18:00 +19°C° 0.6 mm 1 m/S 617 mmHg 75%
    19:00 +18°C° 0.5 mm 1 m/S 617 mmHg 77%
    20:00 +16°C° 0.5 mm 1 m/S 617 mmHg 80%
    21:00 +14°C° 0.5 mm 1 m/S 617 mmHg 83%
    22:00 +13°C° 0 mm 0 m/S 616 mmHg 84%
    23:00 +12°C° 0 mm 0 m/S 616 mmHg 86%

    25 August, Sonntag

    Zeit Temperatur Niederschläge Wind Luftdruck Luftfeuchtigkeit
    00:00 +12°C° 0 mm 0 m/S 616 mmHg 87%
    01:00 +12°C° 0 mm 0 m/S 616 mmHg 87%
    02:00 +12°C° 0 mm 0 m/S 616 mmHg 88%
    03:00 +11°C° 0 mm 0 m/S 616 mmHg 88%
    04:00 +12°C° 0 mm 1 m/S 616 mmHg 87%
    05:00 +12°C° 0 mm 1 m/S 616 mmHg 87%
    06:00 +12°C° 0 mm 1 m/S 616 mmHg 87%
    07:00 +15°C° 0 mm 1 m/S 617 mmHg 78%
    08:00 +18°C° 0 mm 1 m/S 618 mmHg 69%
    09:00 +21°C° 0 mm 1 m/S 619 mmHg 60%
    10:00 +22°C° 0.2 mm 1 m/S 619 mmHg 55%
    11:00 +24°C° 0.2 mm 1 m/S 619 mmHg 50%
    12:00 +25°C° 0.2 mm 2 m/S 620 mmHg 44%
    13:00 +25°C° 0.5 mm 2 m/S 619 mmHg 44%
    14:00 +25°C° 0.5 mm 3 m/S 619 mmHg 44%
    15:00 +25°C° 0.5 mm 3 m/S 619 mmHg 43%
    16:00 +22°C° 0.5 mm 3 m/S 619 mmHg 51%
    17:00 +21°C° 0.5 mm 2 m/S 618 mmHg 60%
    18:00 +19°C° 0.5 mm 2 m/S 618 mmHg 68%
    19:00 +17°C° 0 mm 2 m/S 617 mmHg 69%
    20:00 +16°C° 0 mm 1 m/S 617 mmHg 71%
    21:00 +14°C° 0 mm 1 m/S 617 mmHg 72%
    22:00 +14°C° 0 mm 1 m/S 617 mmHg 71%
    23:00 +13°C° 0 mm 1 m/S 617 mmHg 69%
    Mehr zeigen